Weather History for Waterloo, IA

Change the Weather History Date:

Friday, February 21, 2014

  Actual Average Record
Temperature  
Mean Temperature 19 °F 26 °F  
Max Temperature 26 °F 34 °F 65 °F (1930)
Min Temperature 12 °F 17 °F -17 °F (1936)
Degree Days  
Heating Degree Days 46 39  
Month to date heating degree days 1153 899  
Since 1 July heating degree days 6004 5153  
Cooling Degree Days 0 0  
Month to date cooling degree days 0 0  
Year to date cooling degree days 0 0  
Moisture  
Dew Point 12 °F    
Average Humidity 69    
Maximum Humidity 88    
Minimum Humidity 50    
Precipitation  
Precipitation T in 0.04 in 0.96 in (1974)
Month to date precipitation 1.79 0.69  
Year to date precipitation 2.45 1.52  
Snow  
Snow T in 0.30 in 6.90 in (1974)
Month to date snowfall 17.6 5.9  
Since 1 July snowfall 48.9 27.4  
Snow Depth 3.00 in    
Sea Level Pressure  
Sea Level Pressure 29.72 in    
Wind  
Wind Speed 17 mph (West)    
Max Wind Speed 32 mph    
Max Gust Speed 43 mph    
Visibility 10 miles    
Events Snow    
T = Trace of Precipitation, MM = Missing Value Source: NWS Daily Summary

Daily Weather History Graph

Daily Weather History Graph

Search for Another Location

Airport:

Trip Planner

Search our weather history database for the weather conditions in past years. The results will help you decide how hot, cold, wet, or windy it might be!

Date:

Astronomy

Feb. 21, 2014 Rise Set
Actual Time 6:57 AM CST 5:49 PM CST
Civil Twilight 6:29 AM CST 6:17 PM CST
Nautical Twilight 5:56 AM CST 6:50 PM CST
Astronomical Twilight 5:23 AM CST 7:23 PM CST
Moon No Moon Rise 10:13 AM CST (2/21)
Length of Visible Light 11h 48m
Length of Day
10h 51m
Waning Gibbous, 60% of the Moon is Illuminated
Feb 21
Waning Gibbous
Feb 22
Last Quarter
Mar 1
New
Mar 8
First Quarter
Mar 16
Full

Hourly Weather History & Observations

Time (CST) Temp. Windchill Dew Point Humidity Pressure Visibility Wind Dir Wind Speed Gust Speed Precip Events Conditions
12:54 AM 21.0 °F 4.3 °F 16.0 °F 81% 29.46 in 10.0 mi West 24.2 mph 42.6 mph 0.00 in   Overcast
1:54 AM 19.9 °F 2.8 °F 15.1 °F 81% 29.49 in 10.0 mi WNW 24.2 mph 36.8 mph N/A   Overcast
2:54 AM 19.9 °F 2.2 °F 14.0 °F 78% 29.52 in 4.0 mi West 26.5 mph 36.8 mph 0.00 in Snow Light Snow
3:54 AM 18.0 °F -0.5 °F 10.9 °F 74% 29.56 in 10.0 mi West 26.5 mph 38.0 mph 0.00 in   Overcast
4:54 AM 16.0 °F -0.9 °F 10.0 °F 77% 29.59 in 10.0 mi West 19.6 mph 34.5 mph N/A   Mostly Cloudy
5:10 AM 16.0 °F -2.1 °F 10.0 °F 77% 29.56 in 10.0 mi West 23.0 mph 33.4 mph N/A   Scattered Clouds
5:54 AM 16.0 °F -1.3 °F 10.0 °F 77% 29.61 in 10.0 mi West 20.7 mph 32.2 mph N/A   Clear
6:54 AM 16.0 °F -2.1 °F 9.0 °F 74% 29.63 in 10.0 mi West 23.0 mph 34.5 mph N/A   Clear
7:54 AM 17.1 °F 0.1 °F 8.1 °F 68% 29.66 in 10.0 mi West 20.7 mph 32.2 mph N/A   Clear
8:54 AM 17.1 °F -1.4 °F 9.0 °F 71% 29.68 in 10.0 mi West 25.3 mph 33.4 mph N/A   Clear
9:54 AM 18.0 °F -0.5 °F 10.0 °F 71% 29.70 in 10.0 mi West 26.5 mph 34.5 mph N/A   Clear
10:54 AM 19.9 °F 2.5 °F 10.0 °F 65% 29.72 in 10.0 mi West 25.3 mph 34.5 mph N/A   Clear
11:54 AM 21.9 °F 5.8 °F 12.0 °F 66% 29.74 in 10.0 mi West 23.0 mph 31.1 mph N/A   Clear
12:54 PM 23.0 °F 9.2 °F 12.9 °F 65% 29.75 in 10.0 mi West 17.3 mph 27.6 mph N/A   Clear
1:54 PM 25.0 °F 10.2 °F 12.0 °F 58% 29.74 in 10.0 mi West 21.9 mph 26.5 mph N/A   Clear
2:54 PM 25.0 °F 10.6 °F 9.0 °F 51% 29.76 in 10.0 mi West 20.7 mph 31.1 mph N/A   Clear
3:54 PM 25.0 °F 13.1 °F 10.0 °F 53% 29.79 in 10.0 mi WNW 13.8 mph - N/A   Clear
4:54 PM 25.0 °F 14.2 °F 12.9 °F 60% 29.81 in 10.0 mi West 11.5 mph - N/A   Clear
5:54 PM 23.0 °F 13.1 °F 15.1 °F 72% 29.83 in 10.0 mi West 9.2 mph - N/A   Clear
6:54 PM 19.9 °F 12.1 °F 14.0 °F 78% 29.85 in 10.0 mi WSW 5.8 mph - N/A   Clear
7:54 PM 19.9 °F 13.4 °F 15.1 °F 81% 29.86 in 10.0 mi West 4.6 mph - N/A   Clear
8:54 PM 18.0 °F 11.1 °F 14.0 °F 84% 29.88 in 10.0 mi WNW 4.6 mph - N/A   Clear
9:54 PM 16.0 °F 7.4 °F 12.9 °F 88% 29.88 in 10.0 mi West 5.8 mph - N/A   Clear
10:54 PM 16.0 °F 7.4 °F 10.9 °F 81% 29.89 in 10.0 mi West 5.8 mph - N/A   Clear
11:54 PM 12.9 °F 5.2 °F 10.0 °F 88% 29.89 in 10.0 mi West 4.6 mph - N/A   Clear